This demonstration page uses our WeatherBlox Daily Observations layout. Learn more.

36.17497, -115.13722

Hourly Observations for November 23, 2019

Temp ( °F °C ) Dew Point ( °F °C ) Humidity (%) Winds ( mph kmh ) Pressure ( in mb ) Visibility ( mi km ) Precip ( " mm )
12:53 am 00:53 Clear 45 7.2 38 3.3 77 77 WNW 3 6 30.28 1026 10 16.0934 0 0
1:53 am 01:53 Clear 45 7.2 38 3.3 77 77 Calm 30.29 1026 10 16.0934 0 0
2:53 am 02:53 Clear 44 6.7 38 3.3 79 79 NW 7 11 30.3 1026 10 16.0934 0 0
3:53 am 03:53 Clear 45 7.2 37 2.8 74 74 Calm 30.31 1027 10 16.0934 0 0
4:53 am 04:53 Clear 43 6.1 36 2.2 76 76 WNW 5 7 30.32 1027 10 16.0934 0 0
5:53 am 05:53 Clear 43 6.1 36 2.2 76 76 WNW 7 11 30.34 1027 10 16.0934 0 0
6:53 am 06:53 Sunny 46 7.8 35 1.7 66 66 NW 7 11 30.36 1028 10 16.0934 0 0
7:53 am 07:53 Sunny 49 9.4 34 1.1 56 56 NNW 8 13 30.38 1029 10 16.0934 0 0
8:53 am 08:53 Sunny 53 11.7 33 0.6 47 47 N 12 19 30.38 1029 10 16.0934 0 0
9:53 am 09:53 Sunny 54 12.2 33 0.6 45 45 N 7 11 30.39 1029 10 16.0934 0 0
10:53 am 10:53 Sunny 55 12.8 33 0.6 44 44 N 5 7 30.36 1028 10 16.0934 0 0
11:53 am 11:53 Sunny 56 13.3 34 1.1 44 44 VRB 5 7 30.32 1027 10 16.0934 0 0
1:53 pm 13:53 Sunny 60 15.6 33 0.6 36 36 Calm 30.27 1025 10 16.0934 0 0
2:53 pm 14:53 Sunny 59 15 33 0.6 38 38 Calm 30.26 1025 10 16.0934 0 0
3:53 pm 15:53 Sunny 59 15 34 1.1 39 39 Calm 30.25 1024 10 16.0934 0 0
4:53 pm 16:53 Clear 57 13.9 33 0.6 41 41 N 3 6 30.26 1025 10 16.0934 0 0
5:53 pm 17:53 Clear 54 12.2 33 0.6 45 45 N 6 9 30.27 1025 10 16.0934 0 0
6:53 pm 18:53 Clear 51 10.6 35 1.7 54 54 WNW 7 11 30.27 1025 10 16.0934 0 0
7:53 pm 19:53 Clear 51 10.6 33 0.6 50 50 NW 7 11 30.27 1025 10 16.0934 0 0
8:53 pm 20:53 Clear 50 10 32 0 50 50 NW 7 11 30.27 1025 10 16.0934 0 0
9:53 pm 21:53 Clear 52 11.1 32 0 47 47 NNW 13 20 30.28 1025 10 16.0934 0 0
10:53 pm 22:53 Clear 52 11.1 32 0 47 47 NW 15 24 30.27 1025 10 16.0934 0 0
11:53 pm 23:53 Clear 51 10.6 32 0 48 48 NNW 12 19 30.27 1025 10 16.0934 0 0

Powered by AerisWeather